Weather History for Crestview, FL

Change the Weather History Date:

Friday, November 4, 2011

  Actual Average Record
Temperature  
Mean Temperature 50 °F -  
Max Temperature 62 °F - - ()
Min Temperature 38 °F - - ()
Degree Days  
Heating Degree Days 15    
Moisture  
Dew Point 41 °F    
Average Humidity 75    
Maximum Humidity 90    
Minimum Humidity 53    
Precipitation  
Precipitation 0.00 in - - ()
Sea Level Pressure  
Sea Level Pressure 30.05 in    
Wind  
Wind Speed 7 mph (NW)    
Max Wind Speed 17 mph    
Max Gust Speed 23 mph    
Visibility 10 miles    
Events      
T = Trace of Precipitation, MM = Missing Value Source: NWS Daily Summary

Daily Weather History Graph

Daily Weather History Graph

Search for Another Location

Airport:

Trip Planner

Search our weather history database for the weather conditions in past years. The results will help you decide how hot, cold, wet, or windy it might be!

Date:

Astronomy

Nov. 04, 2011 Rise Set
Actual Time 7:02 AM CDT 5:55 PM CDT
Civil Twilight 6:38 AM CDT 6:20 PM CDT
Nautical Twilight 6:09 AM CDT 6:49 PM CDT
Astronomical Twilight 5:41 AM CDT 7:17 PM CDT
Moon 2:27 PM CDT (11/4) 1:37 AM CDT (11/4)
Length of Visible Light 11h 42m
Length of Day
10h 52m
Waxing Gibbous, 69% of the Moon is Illuminated
Nov 4
Waxing Gibbous
Nov 10
Full
Nov 18
Last Quarter
Nov 25
New
Dec 2
First Quarter

Hourly Weather History & Observations

Time (CDT) Temp. Windchill Dew Point Humidity Pressure Visibility Wind Dir Wind Speed Gust Speed Precip Events Conditions
12:55 AM 45.0 °F 41.2 °F 38.8 °F 79% 30.04 in 10.0 mi NW 6.9 mph - N/A   Clear
1:55 AM 43.5 °F 40.9 °F 38.3 °F 82% 30.03 in 10.0 mi WNW 4.6 mph - N/A   Clear
2:55 AM 42.6 °F 39.0 °F 37.8 °F 83% 30.01 in 10.0 mi WSW 5.8 mph - N/A   Clear
3:55 AM 42.8 °F 39.3 °F 37.6 °F 82% 30.01 in 10.0 mi West 5.8 mph - N/A   Clear
4:55 AM 42.6 °F 39.0 °F 37.6 °F 82% 30.03 in 10.0 mi WNW 5.8 mph - N/A   Clear
5:55 AM 39.9 °F - 36.9 °F 89% 30.03 in 10.0 mi Calm Calm - N/A   Clear
6:55 AM 38.7 °F 36.3 °F 36.0 °F 90% 30.04 in 10.0 mi NW 3.5 mph - N/A   Clear
7:55 AM 42.6 °F 39.9 °F 38.7 °F 86% 30.05 in 10.0 mi NW 4.6 mph - N/A   Clear
8:14 AM 44.6 °F 40.2 °F 39.2 °F 81% 30.05 in 10.0 mi NW 8.1 mph - N/A   Mostly Cloudy
8:55 AM 46.4 °F 41.9 °F 40.3 °F 79% 30.06 in 10.0 mi NW 9.2 mph - N/A   Mostly Cloudy
9:55 AM 49.3 °F - 41.5 °F 75% 30.07 in 10.0 mi NNW 10.4 mph 18.4 mph N/A   Mostly Cloudy
10:55 AM 52.5 °F - 42.4 °F 69% 30.09 in 10.0 mi North 17.3 mph 23.0 mph N/A   Mostly Cloudy
11:55 AM 52.7 °F - 41.7 °F 66% 30.08 in 10.0 mi NNW 15.0 mph 19.6 mph N/A   Mostly Cloudy
12:55 PM 55.6 °F - 41.7 °F 60% 30.05 in 10.0 mi North 13.8 mph - N/A   Scattered Clouds
1:55 PM 57.9 °F - 42.6 °F 57% 30.01 in 10.0 mi NNW 11.5 mph 19.6 mph N/A   Partly Cloudy
2:55 PM 60.3 °F - 43.0 °F 53% 30.00 in 10.0 mi NNW 9.2 mph 16.1 mph N/A   Clear
4:55 PM 62.1 °F - 44.6 °F 53% 30.02 in 10.0 mi NNW 11.5 mph 17.3 mph N/A   Clear
5:55 PM 58.6 °F - 44.8 °F 60% 30.03 in 10.0 mi NNW 6.9 mph - N/A   Clear
6:55 PM 53.8 °F - 45.1 °F 73% 30.04 in 10.0 mi WNW 5.8 mph - N/A   Clear
7:55 PM 54.1 °F - 44.8 °F 71% 30.06 in 10.0 mi WNW 5.8 mph - N/A   Clear
8:55 PM 50.2 °F - 43.9 °F 79% 30.07 in 10.0 mi NW 4.6 mph - N/A   Clear
9:55 PM 47.5 °F - 43.7 °F 87% 30.09 in 10.0 mi NW 3.5 mph - N/A   Clear
10:55 PM 45.9 °F 43.6 °F 42.8 °F 89% 30.10 in 10.0 mi NNW 4.6 mph - N/A   Clear
11:55 PM 47.1 °F - 43.2 °F 86% 30.10 in 10.0 mi North 5.8 mph - N/A   Clear